DateTimeUTC,F1_A11,F1_S11,BsB_S11,BsG_S11,BsR_S11,BbsB_S11,BbsG_S11,BbsR_S11,BaB_A11,BaG_A11,BaR_A11,Tu_S11,T_S11,Uu_S11,U_S11,P_S11,T1_A11
2021-06-06T07:00:00Z,00000200,20000000,,,,,,,0000.17,-000.29,0000.08,17.3,24.1,07.3,04.8,0674.4,30.9
2021-06-06T07:01:00Z,00000200,20000000,,,,,,,0000.09,0000.31,0000.02,17.3,24.1,07.3,04.8,0674.4,30.9
2021-06-06T07:02:00Z,00000200,20000000,,,,,,,-000.43,-000.17,0000.19,17.3,24.0,07.3,04.8,0674.4,30.9
2021-06-06T07:03:00Z,00000200,60000000,,,,,,,0000.26,0000.04,0000.12,17.3,24.1,07.3,04.8,0674.4,30.9
2021-06-06T07:04:00Z,00000200,40000000,0001.95,0001.50,0000.63,0000.52,0000.18,-000.02,0000.56,0000.63,0000.48,17.4,23.9,07.2,04.8,0675.3,30.9
2021-06-06T07:05:00Z,00000200,00000000,0001.31,0001.57,0000.85,0000.37,0000.15,0000.06,0000.36,0000.51,0000.07,17.5,23.9,07.2,04.8,0675.4,30.9
2021-06-06T07:06:00Z,00000200,00000000,0001.70,0001.47,0000.59,0000.63,0000.37,-000.09,0000.55,0000.58,0000.54,17.5,23.9,07.2,04.8,0675.4,30.9
2021-06-06T07:07:00Z,00000200,00000000,0002.21,0001.33,0000.88,0000.49,0000.44,0000.05,0000.60,0000.21,0000.19,17.5,23.9,07.2,04.9,0675.4,31.0
2021-06-06T07:08:00Z,00000200,00000000,0003.04,0001.52,0000.94,0000.81,0000.04,-000.01,0000.40,0000.36,0000.46,17.5,23.9,07.2,04.9,0675.4,31.0
2021-06-06T07:09:00Z,00000200,00000000,0002.26,0001.38,0000.84,0000.90,0000.45,-000.11,0000.50,0000.56,0000.14,17.5,23.9,07.2,04.9,0675.4,30.9
2021-06-06T07:10:00Z,00000200,00000000,0001.48,0001.47,0000.96,0000.20,0000.31,0000.13,0000.42,0000.44,0000.56,17.5,23.9,07.2,04.9,0675.4,30.9
2021-06-06T07:11:00Z,00000200,00000000,0002.04,0001.41,0000.69,0000.56,0000.33,0000.12,0000.58,0000.66,0000.17,17.5,23.9,07.2,04.9,0675.4,30.9
2021-06-06T07:12:00Z,00000200,00000000,0002.28,0001.54,0000.73,0000.48,0000.13,0000.24,0000.45,0000.43,0000.62,17.5,23.9,07.1,04.8,0675.4,30.9
2021-06-06T07:13:00Z,00000200,00000000,0001.93,0001.45,0000.89,0000.83,0000.24,0000.16,0000.61,0000.68,0000.43,17.5,23.9,07.2,04.9,0675.4,30.9
2021-06-06T07:14:00Z,00000200,00000000,0002.19,0001.81,0000.95,0001.01,0000.02,0000.05,0000.60,0000.68,0000.49,17.5,23.9,07.3,05.0,0675.4,30.9
2021-06-06T07:15:00Z,00000200,00000000,0002.07,0001.93,0001.15,0001.08,0000.22,-000.09,0000.42,0000.27,0000.22,17.5,23.9,07.3,04.9,0675.4,31.0
2021-06-06T07:16:00Z,00000200,00000000,0002.34,0001.74,0001.05,0000.35,0000.24,0000.28,0000.47,0000.26,0000.76,17.5,23.9,07.3,04.9,0675.4,30.9
2021-06-06T07:17:00Z,00000200,00000000,0002.69,0001.49,0001.20,0000.53,0000.34,0000.01,0000.73,0000.66,0000.13,17.5,23.9,07.3,04.9,0675.4,30.9
2021-06-06T07:18:00Z,00000200,00000000,0003.19,0001.63,0001.06,0000.61,0000.43,0000.13,0000.59,0000.23,0000.26,17.5,23.9,07.4,05.0,0675.4,30.9
2021-06-06T07:19:00Z,00000200,00000000,0002.00,0001.81,0000.70,0000.40,0000.29,0000.01,0000.36,0000.65,0000.50,17.5,23.9,07.2,04.9,0675.5,30.9
2021-06-06T07:20:00Z,00000200,00000000,0002.33,0001.56,0000.79,0000.75,0000.23,-000.21,0000.28,0000.63,0000.21,17.5,23.9,07.2,04.9,0675.4,30.9
2021-06-06T07:21:00Z,00000200,00000000,0002.61,0001.83,0001.04,0000.47,0000.38,0000.27,0000.87,0000.40,0000.61,17.5,23.9,07.4,05.0,0675.4,30.9
2021-06-06T07:22:00Z,00000200,00000000,0002.57,0001.79,0001.29,0000.07,0000.49,0000.36,0000.33,0000.51,0000.41,17.5,23.9,07.3,04.9,0675.4,30.9
2021-06-06T07:23:00Z,00000200,00000000,0002.59,0002.06,0001.36,0000.55,0000.38,0000.43,0000.75,0000.48,0000.26,17.5,23.9,07.4,05.0,0675.4,30.9
2021-06-06T07:24:00Z,00000200,00000000,0002.77,0001.85,0001.01,0000.62,0000.32,0000.01,0000.44,0000.32,0000.51,17.5,23.9,07.3,04.9,0675.4,30.9
2021-06-06T07:25:00Z,00000200,00000000,0002.89,0001.61,0001.15,0000.53,0000.37,0000.23,0000.78,0000.82,0000.45,17.5,23.9,07.4,05.0,0675.4,30.9
2021-06-06T07:26:00Z,00000200,00000000,0002.36,0001.85,0000.95,0000.84,0000.37,-000.02,0000.05,0000.30,0000.50,17.5,23.8,07.4,05.0,0675.4,30.9
2021-06-06T07:27:00Z,00000200,00000000,0002.82,0001.90,0001.17,0000.40,0000.49,0000.26,0001.04,0000.98,0000.53,17.5,23.8,07.4,05.0,0675.4,30.9
2021-06-06T07:28:00Z,00000200,00000000,0002.91,0002.15,0001.14,0000.15,0000.22,0000.07,0000.12,0000.36,0000.28,17.5,23.8,07.5,05.1,0675.4,30.9
2021-06-06T07:29:00Z,00000200,00000000,0002.37,0002.16,0001.32,0000.82,0000.70,0000.12,0000.83,0000.23,0000.74,17.5,23.9,07.5,05.1,0675.4,30.9
2021-06-06T07:30:00Z,00000200,00000000,0002.07,0001.70,0001.52,0000.64,0000.20,0000.17,0000.57,0000.73,0000.07,17.5,23.8,07.5,05.1,0675.4,30.9
2021-06-06T07:31:00Z,00000200,00000000,0002.90,0001.68,0001.32,0000.98,0000.26,0000.26,0000.51,0000.51,0000.53,17.5,23.9,07.5,05.1,0675.4,30.9
2021-06-06T07:32:00Z,00000200,00000000,0003.41,0002.13,0001.38,0000.56,0000.60,0000.25,0000.60,0000.85,0000.40,17.5,23.9,07.5,05.1,0675.4,30.9
2021-06-06T07:33:00Z,00000200,00000000,0002.62,0002.30,0001.37,0000.73,0000.33,0000.13,0000.33,0000.23,0000.63,17.5,23.8,07.5,05.1,0675.4,30.9
2021-06-06T07:34:00Z,00000200,00000000,0003.11,0001.71,0000.97,0000.54,0000.33,0000.12,0000.78,0000.99,0000.30,17.5,23.8,07.5,05.1,0675.4,30.9
2021-06-06T07:35:00Z,00000200,00000000,0001.65,0002.05,0001.18,0000.72,0000.46,0000.11,0000.63,0000.31,0000.26,17.5,23.8,07.5,05.1,0675.4,30.9
2021-06-06T07:36:00Z,00000200,00000000,0002.92,0001.94,0001.15,0000.77,0000.20,0000.09,0000.66,0000.02,0000.34,17.6,23.9,07.5,05.1,0675.4,30.9
2021-06-06T07:37:00Z,00000200,00000000,0002.29,0002.54,0001.38,0000.61,0000.46,0000.14,0000.49,0000.70,0000.82,17.6,23.9,07.6,05.2,0675.4,30.9
2021-06-06T07:38:00Z,00000200,00000000,0003.42,0002.03,0001.45,0000.74,0000.40,0000.23,0000.65,0000.73,0000.39,17.6,23.9,07.6,05.2,0675.4,30.9
2021-06-06T07:39:00Z,00000200,00000000,0003.55,0001.93,0001.24,0000.72,0000.24,0000.05,0000.43,0000.28,0000.61,17.6,23.9,07.7,05.2,0675.4,30.9
2021-06-06T07:40:00Z,00000200,00000000,0002.97,0001.85,0001.31,0000.58,0000.30,0000.21,0000.81,0000.85,0000.06,17.6,23.9,07.6,05.2,0675.3,30.9
2021-06-06T07:41:00Z,00000200,00000000,0002.86,0002.14,0001.53,0000.38,0000.36,-000.01,0000.32,0000.05,0000.68,17.6,23.9,07.6,05.2,0675.4,30.9
2021-06-06T07:42:00Z,00000200,00000000,0002.90,0002.01,0001.11,0000.49,0000.24,0000.29,0000.89,0000.94,0000.36,17.6,23.8,07.5,05.1,0675.4,30.9
2021-06-06T07:43:00Z,00000200,00000000,0002.91,0002.28,0001.19,0000.32,0000.45,0000.41,0000.65,0000.41,0000.27,17.6,23.8,07.6,05.2,0675.3,30.9
2021-06-06T07:44:00Z,00000200,00000000,0003.23,0001.87,0001.00,0001.05,0000.42,0000.04,0000.36,0000.37,0000.32,17.6,23.9,07.7,05.2,0675.3,30.9
2021-06-06T07:45:00Z,00000200,00000000,0002.97,0001.81,0000.97,0000.17,0000.32,0000.25,0000.45,0000.74,0000.70,17.6,23.8,07.7,05.2,0675.3,30.9
2021-06-06T07:46:00Z,00000200,00000000,0003.42,0002.07,0001.21,0000.38,0000.34,0000.16,0000.93,0000.56,0000.31,17.6,23.8,07.7,05.2,0675.3,30.9
2021-06-06T07:47:00Z,00000200,00000000,0002.83,0001.75,0000.97,0000.73,0000.44,0000.14,0000.36,0000.39,0000.69,17.6,23.9,07.6,05.2,0675.3,31.0
2021-06-06T07:48:00Z,00000200,00000000,0002.29,0002.08,0001.35,0000.76,0000.59,0000.34,0000.78,0000.68,0000.34,17.6,23.8,07.7,05.2,0675.3,30.9
2021-06-06T07:49:00Z,00000200,00000000,0002.67,0001.82,0001.04,0000.59,0000.40,0000.09,0000.39,0000.35,0000.37,17.6,23.8,07.6,05.2,0675.3,30.9
2021-06-06T07:50:00Z,00000200,00000000,0002.45,0001.74,0000.93,0000.18,0000.24,0000.15,0000.78,0000.62,0000.38,17.6,23.8,07.7,05.3,0675.3,30.9
2021-06-06T07:51:00Z,00000200,00000000,0002.16,0001.82,0000.71,0000.06,0000.46,-000.07,0000.35,0000.39,0000.40,17.6,23.8,07.7,05.2,0675.3,30.9
2021-06-06T07:52:00Z,00000200,00000000,0003.04,0001.91,0000.95,0000.17,0000.40,0000.27,0000.28,0000.56,0000.40,17.6,23.9,07.8,05.3,0675.3,30.9
2021-06-06T07:53:00Z,00000200,00000000,0002.47,0001.33,0000.93,0000.55,0000.38,0000.01,0000.56,0000.24,0000.30,17.6,23.8,07.7,05.2,0675.3,31.0
2021-06-06T07:54:00Z,00000200,00010000,0002.00,0001.40,0000.87,0000.49,0000.24,0000.27,0000.55,0001.08,0000.41,17.6,23.8,07.8,05.3,0675.3,30.9
2021-06-06T07:55:00Z,00000200,00000000,0002.16,0001.64,0000.86,0000.31,0000.33,0000.09,0000.64,0000.35,0000.51,17.6,23.8,07.8,05.3,0675.3,30.9
2021-06-06T07:56:00Z,00000200,00000000,0002.09,0001.83,0001.35,0000.92,0000.27,0000.34,0000.28,0000.11,0000.32,17.6,23.8,07.7,05.3,0675.3,30.9
2021-06-06T07:57:00Z,00000200,40000000,,,,,,,0000.39,-000.25,-000.23,17.7,23.9,08.1,05.5,0675.3,30.9
2021-06-06T07:58:00Z,00000200,60000000,,,,,,,-000.10,0000.64,0000.31,17.4,24.0,07.8,05.1,0674.3,30.9
2021-06-06T07:59:00Z,00000200,20000000,,,,,,,0000.11,-000.17,0000.18,17.4,24.1,07.7,05.1,0674.3,30.9
